Location: ??????????
(42.1626°N, 44.1160°E)
Time: 11:05:24
(UTC+00:00)

USA 234 - Pass Details

Date: 03 March 2021
Orbit: 1102 x 1105 km, 123.0° (Epoch: 18 April)

Event Time Altitude Azimuth Distance (km) Brightness Sun altitude
Exits shadow 16:05:16 - 53° (NE) 3,143 5.2 -13.6°
Reaches altitude 10° 16:05:44 10° 54° (NE) 2,965 5.1 -13.7°
Maximum altitude 16:12:12 61° 134° (SE) 1,241 3.3 -14.9°
Drops below altitude 10° 16:18:39 10° 214° (SSW) 2,953 5.9 -16.1°
Sets 16:21:10 0° 217° (SW) 3,908 6.6 -16.6°
